Ankeny, IA

7:07 AM CST on November 15, 2019 (GMT -0600)
Ankeny Regional

Weather History for KIKV - September, 2019

Change the Weather History Date:

Saturday, September 7, 2019

  Actual Average (WUND) Record (WUND)
Temperature  
Mean Temperature 66 °F -  
Max Temperature 77 °F - - (-1)
Min Temperature 55 °F - - (-1)
Cooling Degree Days 1    
Growing Degree Days 16 (Base 50)    
Moisture  
Dew Point 60 °F    
Average Humidity 86    
Maximum Humidity 100    
Minimum Humidity 54    
Precipitation  
Precipitation 0.22 in - - ()
Sea Level Pressure  
Sea Level Pressure 30.07 in    
Wind  
Wind Speed 3 mph ()    
Max Wind Speed 14 mph    
Max Gust Speed 12 mph    
Visibility 9.4 miles    
Events Rain    
Averages and records for this station are not official NWS values.
T = Trace of Precipitation, MM = Missing Value Source: Averaged Metar Reports

Daily Weather History Graph

Daily Weather History Graph

Search for Another Location

Airport or City:

Astronomy

Sep. 07, 2019 Rise Set
Actual Time 6:46 AM CDT 7:37 PM CDT
Civil Twilight 6:17 AM CDT 8:05 PM CDT
Nautical Twilight 5:44 AM CDT 8:39 PM CDT
Astronomical Twilight 5:09 AM CDT 9:14 PM CDT
Moon 3:58 PM CDT (9/7) 12:34 AM CDT (9/7)
Length of Visible Light 13h 48m
Length of Day
12h 51m
Waxing Gibbous, 66% of the Moon is Illuminated
Sep 7
Waxing Gibbous
Sep 13
Full
Sep 21
Last Quarter
Sep 28
New
Oct 5
First Quarter

Hourly Weather History & Observations

Time (CDT) Temp. Dew Point Humidity Pressure Visibility Wind Dir Wind Speed Gust Speed Precip Events Conditions
12:15 AM 60.8 °F 59.0 °F 94% 30.12 in 10.0 mi NNE 3.5 mph - N/A   Clear
12:35 AM 60.8 °F 59.0 °F 94% 30.12 in 10.0 mi NNE 3.5 mph - N/A   Clear
12:55 AM 59.0 °F 57.2 °F 94% 30.12 in 10.0 mi NNE 5.8 mph - N/A   Clear
1:15 AM 59.0 °F 57.2 °F 94% 30.13 in 10.0 mi NNE 4.6 mph - N/A   Clear
1:35 AM 59.0 °F 57.2 °F 94% 30.12 in 10.0 mi North 4.6 mph - N/A   Clear
1:55 AM 59.0 °F 57.2 °F 94% 30.12 in 10.0 mi Calm Calm - N/A   Clear
2:15 AM 59.0 °F 57.2 °F 94% 30.12 in 10.0 mi Calm Calm - N/A   Clear
2:35 AM 57.2 °F 55.4 °F 94% 30.13 in 10.0 mi Calm Calm - N/A   Clear
2:55 AM 57.2 °F 55.4 °F 94% 30.13 in 10.0 mi Calm Calm - N/A   Clear
3:15 AM 57.2 °F 55.4 °F 94% 30.13 in 6.0 mi Calm Calm - N/A   Clear
3:35 AM 57.2 °F 55.4 °F 94% 30.13 in 9.0 mi Calm Calm - N/A   Clear
3:55 AM 55.4 °F 55.4 °F 100% 30.12 in 9.0 mi Calm Calm - N/A   Clear
4:15 AM 55.4 °F 55.4 °F 100% 30.12 in 10.0 mi Calm Calm - N/A   Clear
4:35 AM 55.4 °F 55.4 °F 100% 30.11 in 10.0 mi Calm Calm - N/A   Clear
4:55 AM 57.2 °F 55.4 °F 94% 30.10 in 10.0 mi Calm Calm - N/A   Clear
5:15 AM 55.4 °F 55.4 °F 100% 30.10 in 10.0 mi Calm Calm - N/A   Clear
5:35 AM 57.2 °F 55.4 °F 94% 30.10 in 10.0 mi Calm Calm - N/A   Clear
5:55 AM 57.2 °F 57.2 °F 100% 30.10 in 10.0 mi Calm Calm - N/A   Clear
6:15 AM 57.2 °F 55.4 °F 94% 30.10 in 10.0 mi Calm Calm - N/A   Scattered Clouds
6:35 AM 59.0 °F 59.0 °F 100% 30.12 in 10.0 mi Calm Calm - N/A   Scattered Clouds
6:55 AM 59.0 °F 57.2 °F 94% 30.12 in 10.0 mi Calm Calm - N/A   Clear
7:15 AM 59.0 °F 57.2 °F 94% 30.12 in 10.0 mi Calm Calm - N/A   Clear
7:35 AM 60.8 °F 59.0 °F 94% 30.13 in 10.0 mi Calm Calm - N/A   Clear
7:55 AM 60.8 °F 59.0 °F 94% 30.11 in 10.0 mi Calm Calm - N/A   Clear
8:15 AM 60.8 °F 60.8 °F 100% 30.12 in 10.0 mi Calm Calm - N/A   Clear
8:35 AM 62.6 °F 60.8 °F 94% 30.11 in 10.0 mi Calm Calm - N/A   Clear
8:55 AM 64.4 °F 60.8 °F 88% 30.11 in 10.0 mi Calm Calm - N/A   Clear
9:15 AM 64.4 °F 62.6 °F 94% 30.09 in 10.0 mi SSE 3.5 mph - N/A   Clear
9:35 AM 66.2 °F 62.6 °F 88% 30.08 in 10.0 mi SSE 4.6 mph - N/A   Clear
9:55 AM 68.0 °F 62.6 °F 83% 30.08 in 10.0 mi SSE 5.8 mph - N/A   Clear
10:15 AM 71.6 °F 60.8 °F 69% 30.08 in 10.0 mi South 6.9 mph - N/A   Clear
10:35 AM 71.6 °F 60.8 °F 69% 30.10 in 10.0 mi Variable 6.9 mph - N/A   Clear
10:55 AM 73.4 °F 60.8 °F 65% 30.11 in 10.0 mi SSW 5.8 mph - N/A   Clear
11:15 AM 73.4 °F 59.0 °F 61% 30.11 in 10.0 mi Variable 4.6 mph - N/A   Clear
11:35 AM 75.2 °F 60.8 °F 61% 30.10 in 10.0 mi Variable 5.8 mph - N/A   Clear
11:55 AM 75.2 °F 60.8 °F 61% 30.10 in 9.0 mi SSW 4.6 mph - N/A   Clear
12:15 PM 75.2 °F 59.0 °F 57% 30.09 in 10.0 mi SW 4.6 mph - N/A   Clear
12:35 PM 75.2 °F 59.0 °F 57% 30.09 in 10.0 mi Calm Calm - N/A   Clear
12:55 PM 77.0 °F 59.0 °F 54% 30.08 in 9.0 mi Variable 4.6 mph - N/A   Clear
1:15 PM 75.2 °F 59.0 °F 57% 30.07 in 9.0 mi Calm Calm - N/A   Clear
1:35 PM 75.2 °F 60.8 °F 61% 30.07 in 10.0 mi Variable 4.6 mph - N/A   Clear
1:55 PM 77.0 °F 60.8 °F 57% 30.06 in 9.0 mi SSE 3.5 mph - N/A   Clear
2:15 PM 75.2 °F 59.0 °F 57% 30.05 in 10.0 mi Calm Calm - N/A   Clear
2:35 PM 75.2 °F 60.8 °F 61% 30.04 in 10.0 mi East 4.6 mph - N/A   Partly Cloudy
2:55 PM 75.2 °F 60.8 °F 61% 30.03 in 10.0 mi East 5.8 mph - N/A   Clear
3:15 PM 73.4 °F 60.8 °F 65% 30.02 in 10.0 mi East 6.9 mph - N/A   Scattered Clouds
3:35 PM 73.4 °F 60.8 °F 65% 30.02 in 10.0 mi ENE 4.6 mph - N/A   Scattered Clouds
3:55 PM 73.4 °F 60.8 °F 65% 30.07 in 10.0 mi Calm Calm - N/A   Mostly Cloudy
4:15 PM 73.4 °F 60.8 °F 65% 30.08 in 8.0 mi Calm Calm - N/A Rain Light Rain
4:55 PM 68.0 °F 64.4 °F 88% 30.03 in 5.0 mi ENE 6.9 mph - 0.04 in Rain Light Rain
5:15 PM 66.2 °F 64.4 °F 94% 30.00 in 6.0 mi East 6.9 mph - N/A Rain Light Rain
5:35 PM 66.2 °F 64.4 °F 94% 29.99 in 6.0 mi East 5.8 mph - N/A Rain Light Rain
5:55 PM 66.2 °F 64.4 °F 94% 30.00 in 6.0 mi East 8.1 mph - 0.13 in Rain Light Rain
6:15 PM 66.2 °F 64.4 °F 94% 30.00 in 8.0 mi ENE 6.9 mph - N/A   Mostly Cloudy
6:35 PM 66.2 °F 64.4 °F 94% 30.02 in 5.0 mi ENE 5.8 mph - N/A Rain Light Rain
6:55 PM 64.4 °F 62.6 °F 94% 30.03 in 10.0 mi ENE 4.6 mph - 0.03 in Rain Light Rain
7:15 PM 64.4 °F 62.6 °F 94% 30.02 in 10.0 mi East 5.8 mph - N/A   Mostly Cloudy
7:35 PM 64.4 °F 62.6 °F 94% 30.03 in 10.0 mi Calm Calm - N/A   Mostly Cloudy
7:55 PM 64.4 °F 62.6 °F 94% 30.03 in 10.0 mi NE 5.8 mph - 0.01 in   Overcast
8:15 PM 64.4 °F 64.4 °F 100% 30.01 in 8.0 mi ENE 9.2 mph - N/A Rain Light Rain
8:35 PM 64.4 °F 64.4 °F 100% 30.02 in 10.0 mi ENE 6.9 mph - N/A   Scattered Clouds
8:55 PM 64.4 °F 64.4 °F 100% 30.03 in 10.0 mi ENE 4.6 mph 11.5 mph 0.01 in   Mostly Cloudy
9:15 PM 64.4 °F 64.4 °F 100% 30.03 in 10.0 mi ENE 5.8 mph - N/A   Overcast
10:15 PM 64.4 °F 64.4 °F 100% 30.01 in 10.0 mi East 6.9 mph - N/A   Overcast
10:35 PM 64.4 °F 64.4 °F 100% 30.00 in 10.0 mi ENE 8.1 mph - N/A   Overcast
10:55 PM 64.4 °F 64.4 °F 100% 30.03 in 10.0 mi NE 8.1 mph - N/A   Overcast
11:15 PM 64.4 °F 64.4 °F 100% 30.03 in 10.0 mi ENE 6.9 mph - N/A   Overcast
11:35 PM 64.4 °F 64.4 °F 100% 30.02 in 10.0 mi NE 9.2 mph - N/A   Overcast
11:55 PM 64.4 °F 64.4 °F 100% 30.00 in 10.0 mi East 13.8 mph - N/A   Overcast